Cloud_Cover
0 0 0 0 0 0 0 0 0 0 0 0 5 5 5 16 78 100 80 35 97 98 100 75 8 5 5 5 1 5 5 37 73 5 5 24 5 5 5 0 0 0 5 5 0
0 2 0 0 0 0 0 0 0 0 0 0 5 5 5 8 68 100 100 29 63 98 98 93 81 32 5 5 2 0 5 39 20 45 68 79 57 18 5 0 1 1 3 5 0
5 1 0 0 0 0 0 0 0 0 0 0 5 5 5 62 92 100 100 100 98 74 13 100 100 47 22 6 5 10 5 5 56 43 83 7 6 6 3 0 0 0 1 0 0
4 4 4 4 0 0 0 0 0 0 0 0 0 4 10 88 100 100 100 100 100 98 100 97 88 62 17 12 5 37 6 5 5 5 6 6 1 9 6 5 5 2 3 5 0
1 3 5 5 1 0 0 0 0 0 0 0 0 4 76 87 98 100 100 100 100 100 98 100 69 72 53 39 12 83 5 11 5 5 5 6 8 5 5 5 5 5 5 5 5
5 0 2 0 0 0 0 0 0 0 0 0 0 3 53 82 98 100 100 100 100 100 100 77 18 5 64 22 52 100 10 36 5 5 5 6 46 11 5 5 5 5 4 5 5
0 0 6 0 0 0 0 0 0 0 0 0 0 9 29 63 83 100 100 100 100 100 100 100 34 5 6 71 98 100 94 5 5 5 5 5 5 5 5 5 5 5 5 5 26
1 12 20 0 0 0 0 0 0 0 0 0 73 72 5 5 71 100 100 100 100 100 100 100 100 82 100 16 24 76 55 40 5 5 7 5 6 5 5 5 5 5 5 5 5
100 100 34 20 0 0 0 0 0 0 0 59 85 25 2 14 9 100 100 100 100 100 100 100 100 100 100 77 77 34 95 64 55 36 5 5 5 7 5 5 5 5 5 5 5
100 100 8 0 0 0 0 0 0 0 0 100 92 16 2 8 5 36 100 100 100 100 100 100 100 100 100 100 100 90 83 82 92 93 58 5 5 25 5 5 5 5 5 5 5
9 0 0 0 0 0 0 0 0 0 5 5 5 5 4 5 5 5 99 100 100 100 100 100 100 100 100 100 100 100 100 100 97 100 100 93 97 6 55 8 12 100 93 100 100
0 0 0 0 0 0 0 0 0 0 5 5 0 0 1 4 5 5 5 100 100 100 100 100 100 100 100 100 100 93 100 100 100 100 100 43 100 100 100 100 98 79 50 5 5
3 4 5 5 2 0 0 0 0 0 2 0 0 0 0 5 5 5 5 87 100 100 100 100 100 100 100 100 100 80 100 98 30 93 100 100 100 100 100 99 92 88 88 100 100
5 5 5 1 0 0 0 0 0 0 0 0 0 0 0 1 5 28 5 8 50 100 100 100 100 100 100 92 100 100 100 100 96 60 34 25 88 49 50 71 34 21 6 5 5
5 5 0 0 0 0 0 0 0 0 0 0 0 0 0 0 0 5 5 5 5 5 5 57 14 5 5 26 42 94 80 13 5 5 5 0 3 100 5 5 0 5 5 5 3
0 0 0 0 0 0 0 0 0 0 0 0 0 0 0 0 0 0 0 2 5 5 5 5 31 6 9 6 7 16 6 4 1 0 0 3 0 17 46 10 20 5 5 0 0
4 5 5 5 5 5 5 5 2 0 0 0 0 0 0 0 0 0 0 0 5 5 5 5 5 5 5 5 5 2 3 0 2 3 5 6 5 5 7 8 5 0 0 0 0
0 1 5 10 5 5 5 0 0 0 0 0 0 0 0 0 0 0 0 0 1 5 5 5 7 5 5 5 5 5 3 1 5 16 5 5 2 2 0 0 0 0 0 0 0
3 0 0 0 0 0 0 0 0 0 0 0 0 0 0 0 0 0 0 0 0 2 0 5 5 5 2 4 4 5 5 5 5 4 1 0 0 0 0 0 0 0 0 0 4
3 0 0 0 0 0 0 0 0 0 0 0 0 0 0 0 0 0 0 0 0 0 0 0 0 0 0 0 1 3 0 0 0 0 0 0 0 0 0 0 0 0 0 4 27
0 2 4 0 0 0 0 0 0 0 0 0 0 0 0 0 0 0 0 0 0 0 0 0 0 0 0 0 0 0 0 0 0 0 0 0 0 0 0 0 0 2 39 82 36
0 0 0 0 0 0 0 0 0 0 0 0 0 0 0 0 0 0 0 0 0 0 0 0 0 0 0 0 0 0 0 0 0 0 0 0 0 0 0 4 5 8 9 5 5
5 5 2 0 0 0 0 0 0 0 0 0 0 0 0 0 0 0 0 0 0 0 0 0 0 0 0 0 0 0 0 0 0 0 35 6 84 5 5 2 1 5 12 34 3
5 14 46 36 17 1 0 0 0 0 0 0 0 0 0 0 0 0 0 0 0 0 0 0 0 0 0 0 2 18 18 43 43 53 14 58 5 5 0 0 0 0 0 0 0
5 5 5 5 7 20 69 55 35 20 4 3 0 1 0 0 0 1 0 0 2 3 3 4 28 69 91 95 67 97 87 36 7 2 0 1 1 1 2 0 0 0 0 0 0
60 5 5 5 5 5 5 5 5 5 5 5 7 6 24 26 20 10 10 5 5 5 5 3 5 5 5 2 3 3 5 2 1 0 0 0 0 0 0 0 0 0 0 0 5
95 77 77 17 5 5 5 5 5 5 0 2 2 4 3 4 2 3 2 0 4 0 0 0 0 0 1 0 0 1 2 0 0 0 0 0 0 1 4 4 2 3 4 1 4